Regional Weather Roundup
Issued by NWS

Home | Current Version | Previous Version | Text Only | Print | Product List | Glossary On
Versions: 1 2 3 4 5 6 7 8 9 10 11 12 13 14 15 16 17 18 19 20 21 22 23 24 25 26 27
000
ASUS45 KBOI 240110
RWRID

IDAHO REGIONAL WEATHER ROUNDUP
NATIONAL WEATHER SERVICE BOISE ID
700 PM MDT TUE AUG 23 2016

NOTE: "FAIR" INDICATES FEW OR NO CLOUDS BELOW 12000 FEET
WITH NO SIGNIFICANT WEATHER AND/OR OBSTRUCTIONS TO VISIBILITY

IDZ012-014-240200-
SOUTHWEST IDAHO


CITY           SKY/WX    TMP DP  RH WIND       PRES   REMARKS
BOISE          SUNNY     80  20  10 NW13      30.06S
CALDWELL       SUNNY     80  33  18 SW8       30.05S
MOUNTAIN HOME  SUNNY     80  24  12 NW23      30.04S
$$

IDZ016-017-240200-
SOUTHCENTRAL IDAHO


CITY           SKY/WX    TMP DP  RH WIND       PRES   REMARKS
BURLEY         SUNNY     72  29  20 W12G20    30.07S
JEROME         SUNNY     76  18  11 W10       30.08S
TWIN FALLS     SUNNY     76  20  12 W17       30.09F
$$

IDZ019>023-240200-
SOUTHEAST IDAHO


CITY           SKY/WX    TMP DP  RH WIND       PRES   REMARKS
IDAHO FALLS    SUNNY     77  20  12 S17G24    30.07S
POCATELLO      SUNNY     76  18  11 SW17      30.09R
REXBURG        SUNNY     75  20  12 SW13      30.07R
$$

IDZ006-010-011-018-031-032-240200-
CENTRAL IDAHO MOUNTAINS


CITY           SKY/WX    TMP DP  RH WIND       PRES   REMARKS
MCCALL         NOT AVBL
HAILEY         SUNNY     73  25  16 S12       30.09R
STANLEY          N/A     69  17  13 W9        30.19R
SALMON         SUNNY     73  30  20 N12       30.07R
CHALLIS        SUNNY     74  26  16 N12       30.07R
$$

IDZ002-004-006-007-026-240200-
NORTHERN IDAHO


CITY           SKY/WX    TMP DP  RH WIND       PRES   REMARKS
LEWISTON       SUNNY     82  38  20 VRB6      30.08F
LOWELL           N/A     72  44  36 CALM      30.08S
COEUR D`ALENE  SUNNY     75  41  29 CALM      30.09S
MULLAN PASS    SUNNY     60  37  42 VRB3      30.26R
$$




USA.gov is the U.S. government's official web portal to all federal, state and local government web resources and services.